• In Netherlands
  • List of Countries
  • For 7 days
  • Water Temperature
  • Satellite Maps
  • Weather Map
  • Weather Widgets
  • user-avatar
    Login

    Hourly Weather Kiustendil

    Today, 19 January, Friday

    Time Temperature Precipitation Wind Pressure Humidity
    00:00 -8°C° 0 mm 1 mps 619 mmHg 59%
    01:00 -8°C° 0 mm 1 mps 619 mmHg 57%
    02:00 -8°C° 0 mm 1 mps 618 mmHg 57%
    03:00 -7°C° 0 mm 1 mps 618 mmHg 56%
    04:00 -8°C° 0 mm 2 mps 618 mmHg 56%
    05:00 -8°C° 0 mm 2 mps 618 mmHg 55%
    06:00 -7°C° 0 mm 1 mps 618 mmHg 55%
    07:00 -7°C° 0 mm 1 mps 618 mmHg 54%
    08:00 -4°C° 0 mm 1 mps 619 mmHg 50%
    09:00 -2°C° 0 mm 1 mps 620 mmHg 46%
    10:00 0°C° 0 mm 1 mps 620 mmHg 42%
    11:00 0°C° 0 mm 1 mps 620 mmHg 42%
    12:00 -1°C° 0 mm 2 mps 620 mmHg 41%
    13:00 +1°C° 0 mm 2 mps 620 mmHg 41%
    14:00 -1°C° 0 mm 2 mps 620 mmHg 46%
    15:00 -2°C° 0 mm 2 mps 620 mmHg 51%
    16:00 -3°C° 0 mm 2 mps 619 mmHg 57%
    17:00 -4°C° 0 mm 2 mps 619 mmHg 58%
    18:00 -5°C° 0 mm 2 mps 619 mmHg 60%
    19:00 -6°C° 0 mm 2 mps 618 mmHg 61%
    20:00 -6°C° 0 mm 2 mps 618 mmHg 62%
    21:00 -6°C° 0 mm 2 mps 618 mmHg 62%
    22:00 -6°C° 0 mm 2 mps 618 mmHg 63%
    23:00 -6°C° 0 mm 2 mps 618 mmHg 64%

    Tomorrow, 20 January, Saturday

    Time Temperature Precipitation Wind Pressure Humidity
    00:00 -6°C° 0 mm 2 mps 618 mmHg 64%
    01:00 -6°C° 0 mm 2 mps 618 mmHg 65%
    02:00 -6°C° 0 mm 2 mps 618 mmHg 66%
    03:00 -6°C° 0 mm 2 mps 618 mmHg 67%
    04:00 -6°C° 0 mm 2 mps 617 mmHg 68%
    05:00 -6°C° 0 mm 2 mps 617 mmHg 69%
    06:00 -6°C° 0 mm 2 mps 617 mmHg 70%
    07:00 -6°C° 0 mm 2 mps 617 mmHg 71%
    08:00 -4°C° 0 mm 2 mps 618 mmHg 69%
    09:00 -3°C° 0 mm 2 mps 619 mmHg 67%
    10:00 -1°C° 0 mm 2 mps 619 mmHg 64%
    11:00 -1°C° 0 mm 2 mps 619 mmHg 65%
    12:00 -1°C° 0 mm 2 mps 619 mmHg 67%
    13:00 +1°C° 0 mm 2 mps 618 mmHg 68%
    14:00 -1°C° 0.3 mm 3 mps 618 mmHg 72%
    15:00 -2°C° 0.3 mm 3 mps 618 mmHg 76%
    16:00 -4°C° 0.3 mm 3 mps 617 mmHg 81%
    17:00 -4°C° 0.6 mm 2 mps 617 mmHg 83%
    18:00 -4°C° 0.6 mm 2 mps 617 mmHg 85%
    19:00 -3°C° 0.6 mm 1 mps 618 mmHg 88%
    20:00 -4°C° 0.1 mm 1 mps 617 mmHg 88%
    21:00 -6°C° 0.1 mm 1 mps 617 mmHg 88%
    22:00 -6°C° 0.1 mm 1 mps 617 mmHg 89%
    23:00 -6°C° 0 mm 1 mps 617 mmHg 88%

    Day after tomorrow, 21 January, Sunday

    Time Temperature Precipitation Wind Pressure Humidity
    00:00 -6°C° 0 mm 1 mps 617 mmHg 87%
    01:00 -6°C° 0 mm 1 mps 617 mmHg 85%
    02:00 -6°C° 0 mm 1 mps 616 mmHg 84%
    03:00 -6°C° 0 mm 1 mps 616 mmHg 82%
    04:00 -4°C° 0 mm 1 mps 616 mmHg 81%
    05:00 -4°C° 0.1 mm 1 mps 616 mmHg 80%
    06:00 -4°C° 0.1 mm 1 mps 616 mmHg 80%
    07:00 -3°C° 0.1 mm 1 mps 616 mmHg 79%
    08:00 -3°C° 0.3 mm 1 mps 615 mmHg 80%
    09:00 -4°C° 0.3 mm 2 mps 615 mmHg 80%
    10:00 -3°C° 0.3 mm 2 mps 615 mmHg 80%
    11:00 -3°C° 0.7 mm 2 mps 614 mmHg 81%
    12:00 -3°C° 0.7 mm 2 mps 613 mmHg 83%
    13:00 -3°C° 0.7 mm 2 mps 613 mmHg 85%
    14:00 -3°C° 0.5 mm 2 mps 613 mmHg 87%
    15:00 -3°C° 0.5 mm 2 mps 613 mmHg 88%
    16:00 -1°C° 0.5 mm 1 mps 612 mmHg 90%
    17:00 -4°C° 0.8 mm 2 mps 613 mmHg 89%
    18:00 -6°C° 0.8 mm 3 mps 613 mmHg 88%
    19:00 -7°C° 0.8 mm 4 mps 613 mmHg 88%
    20:00 -8°C° 0.1 mm 4 mps 614 mmHg 87%
    21:00 -9°C° 0.1 mm 4 mps 614 mmHg 86%
    22:00 -9°C° 0.1 mm 4 mps 614 mmHg 85%
    23:00 -10°C° 0 mm 4 mps 614 mmHg 85%

    22 January, Monday

    Time Temperature Precipitation Wind Pressure Humidity
    00:00 -10°C° 0 mm 4 mps 614 mmHg 85%
    01:00 -10°C° 0 mm 4 mps 615 mmHg 85%
    02:00 -11°C° 0 mm 4 mps 615 mmHg 85%
    03:00 -11°C° 0 mm 4 mps 615 mmHg 85%
    04:00 -11°C° 0 mm 4 mps 615 mmHg 84%
    05:00 -11°C° 0 mm 4 mps 616 mmHg 84%
    06:00 -11°C° 0 mm 4 mps 616 mmHg 83%
    07:00 -12°C° 0 mm 4 mps 616 mmHg 82%
    08:00 -11°C° 0 mm 4 mps 617 mmHg 78%
    09:00 -10°C° 0 mm 4 mps 618 mmHg 74%
    10:00 -10°C° 0 mm 5 mps 618 mmHg 70%
    11:00 -10°C° 0 mm 5 mps 619 mmHg 68%
    12:00 -10°C° 0 mm 5 mps 619 mmHg 67%
    13:00 -8°C° 0 mm 4 mps 619 mmHg 66%
    14:00 -9°C° 0 mm 4 mps 619 mmHg 68%
    15:00 -10°C° 0 mm 4 mps 619 mmHg 71%
    16:00 -10°C° 0 mm 3 mps 619 mmHg 73%
    17:00 -12°C° 0 mm 3 mps 620 mmHg 75%
    18:00 -12°C° 0 mm 2 mps 620 mmHg 78%
    19:00 -13°C° 0 mm 2 mps 620 mmHg 80%
    20:00 -13°C° 0 mm 2 mps 620 mmHg 78%
    21:00 -11°C° 0 mm 1 mps 620 mmHg 76%
    22:00 -11°C° 0 mm 1 mps 620 mmHg 74%
    23:00 -11°C° 0 mm 1 mps 620 mmHg 71%

    23 January, Tuesday

    Time Temperature Precipitation Wind Pressure Humidity
    00:00 -11°C° 0 mm 1 mps 620 mmHg 68%
    01:00 -10°C° 0 mm 1 mps 620 mmHg 65%
    02:00 -10°C° 0 mm 1 mps 620 mmHg 63%
    03:00 -10°C° 0 mm 1 mps 620 mmHg 60%
    04:00 -10°C° 0 mm 1 mps 620 mmHg 58%
    05:00 -9°C° 0 mm 1 mps 620 mmHg 56%
    06:00 -9°C° 0 mm 1 mps 621 mmHg 54%
    07:00 -9°C° 0 mm 1 mps 621 mmHg 53%
    08:00 -7°C° 0 mm 1 mps 622 mmHg 51%
    09:00 -4°C° 0 mm 1 mps 622 mmHg 50%
    10:00 -3°C° 0 mm 1 mps 623 mmHg 49%
    11:00 -2°C° 0 mm 1 mps 623 mmHg 53%
    12:00 -2°C° 0 mm 1 mps 623 mmHg 56%
    13:00 -2°C° 0 mm 1 mps 624 mmHg 60%
    14:00 -2°C° 0 mm 1 mps 623 mmHg 64%
    15:00 -3°C° 0 mm 1 mps 623 mmHg 68%
    16:00 -3°C° 0 mm 1 mps 623 mmHg 73%
    17:00 -4°C° 0 mm 1 mps 624 mmHg 76%
    18:00 -4°C° 0 mm 1 mps 624 mmHg 79%
    19:00 -4°C° 0 mm 1 mps 624 mmHg 82%
    20:00 -4°C° 0 mm 1 mps 624 mmHg 84%
    21:00 -6°C° 0 mm 1 mps 624 mmHg 85%
    22:00 -6°C° 0 mm 1 mps 625 mmHg 87%
    23:00 -6°C° 0 mm 1 mps 625 mmHg 88%

    24 January, Wednesday

    Time Temperature Precipitation Wind Pressure Humidity
    00:00 -6°C° 0 mm 1 mps 625 mmHg 89%
    01:00 -6°C° 0 mm 1 mps 625 mmHg 90%
    02:00 -6°C° 0 mm 1 mps 625 mmHg 90%
    03:00 -7°C° 0 mm 2 mps 625 mmHg 91%
    04:00 -8°C° 0 mm 2 mps 625 mmHg 91%
    05:00 -8°C° 0 mm 2 mps 625 mmHg 91%
    06:00 -8°C° 0 mm 2 mps 625 mmHg 90%
    07:00 -7°C° 0 mm 1 mps 625 mmHg 90%
    08:00 -7°C° 0 mm 2 mps 626 mmHg 86%
    09:00 -5°C° 0 mm 2 mps 626 mmHg 82%
    10:00 -4°C° 0 mm 2 mps 627 mmHg 78%
    11:00 -4°C° 0.1 mm 2 mps 627 mmHg 78%
    12:00 -3°C° 0.1 mm 2 mps 627 mmHg 78%
    13:00 -4°C° 0.1 mm 3 mps 627 mmHg 78%
    14:00 -4°C° 0.1 mm 3 mps 627 mmHg 80%
    15:00 -4°C° 0.1 mm 2 mps 627 mmHg 81%
    16:00 -4°C° 0.1 mm 2 mps 627 mmHg 83%
    17:00 -5°C° 0 mm 2 mps 627 mmHg 85%
    18:00 -6°C° 0 mm 2 mps 627 mmHg 88%
    19:00 -7°C° 0 mm 2 mps 627 mmHg 90%
    20:00 -7°C° 0 mm 2 mps 627 mmHg 90%
    21:00 -7°C° 0 mm 2 mps 628 mmHg 90%
    22:00 -7°C° 0 mm 2 mps 628 mmHg 91%
    23:00 -8°C° 0 mm 2 mps 628 mmHg 91%
    Show more